This demonstration page uses our WeatherBlox Daily Observations layout. Learn more.

Left ArrowRight Arrow

34.16533, -84.80231

Hourly Observations for March 7, 2020

Temp ( °F °C ) Dew Point ( °F °C ) Humidity (%) Winds ( mph kmh ) Pressure ( in mb ) Visibility ( mi km ) Precip ( " mm )
12:53 am 00:53 Clear 39 3.9 24 -4.4 55 55 N 12 19 30.40 1029 10 16 0.00 0.00
1:53 am 01:53 Clear 37 2.8 24 -4.4 59 59 Calm 30.39 1029 10 16 0.00 0.00
2:53 am 02:53 Clear 34 1.1 26 -3.3 73 73 Calm 30.40 1029 10 16 0.00 0.00
3:53 am 03:53 Clear 34 1.1 25 -3.9 70 70 Calm 30.38 1029 10 16 0.00 0.00
4:53 am 04:53 Clear 33 0.6 25 -3.9 72 72 Calm 30.38 1029 10 16 0.00 0.00
5:53 am 05:53 Clear 33 0.6 25 -3.9 72 72 Calm 30.40 1030 10 16 0.00 0.00
6:53 am 06:53 Clear 31 -0.6 25 -3.9 79 79 Calm 30.43 1030 10 16 0.00 0.00
7:53 am 07:53 Sunny 34 1.1 26 -3.3 73 73 Calm 30.45 1031 10 16 0.00 0.00
8:53 am 08:53 Sunny 40 4.4 27 -2.8 60 60 Calm 30.48 1032 10 16 0.00 0.00
9:53 am 09:53 Sunny 43 6.1 26 -3.3 51 51 NNE 13 20 30.49 1033 10 16 0.00 0.00
10:53 am 10:53 Sunny 46 7.8 26 -3.3 46 46 NNE 6 9 30.50 1033 10 16 0.00 0.00
11:53 am 11:53 Sunny 49 9.4 27 -2.8 43 43 N 8 13 30.50 1033 10 16 0.00 0.00
12:53 pm 12:53 Sunny 53 11.7 27 -2.8 37 37 N 9 15 30.47 1032 10 16 0.00 0.00
1:53 pm 13:53 Sunny 55 12.8 27 -2.8 34 34 NNW 8 13 30.44 1031 10 16 0.00 0.00
2:53 pm 14:53 Sunny 57 13.9 27 -2.8 32 32 NNW 7 11 30.42 1030 10 16 0.00 0.00
3:53 pm 15:53 Sunny 58 14.4 28 -2.2 32 32 N 12 19 30.40 1030 10 16 0.00 0.00
4:53 pm 16:53 Sunny 58 14.4 27 -2.8 31 31 VRB 3 6 30.40 1029 10 16 0.00 0.00
5:53 pm 17:53 Sunny 55 12.8 26 -3.3 33 33 N 5 7 30.41 1030 10 16 0.00 0.00
6:53 pm 18:53 Clear 52 11.1 27 -2.8 38 38 Calm 30.42 1030 10 16 0.00 0.00
7:53 pm 19:53 Clear 42 5.6 31 -0.6 65 65 Calm 30.45 1031 10 16 0.00 0.00
8:53 pm 20:53 Clear 39 3.9 30 -1.1 70 70 Calm 30.47 1032 10 16 0.00 0.00
9:53 pm 21:53 Clear 39 3.9 30 -1.1 70 70 Calm 30.47 1032 10 16 0.00 0.00
10:53 pm 22:53 Clear 36 2.2 30 -1.1 79 79 Calm 30.48 1032 10 16 0.00 0.00
11:53 pm 23:53 Clear 34 1.1 29 -1.7 82 82 Calm 30.47 1032 10 16 0.00 0.00

Powered by AerisWeather